Flag for China Weather past 2 weeks in Nanjing, Jiangsu, China

Now
75 °F

Light rain. Fog.


Feels Like: 74 °F
Forecast: 70 / 83 °F
Wind: 8 mph from East

Location: Nanjing

Current Time: Aug 31, 2014 at 10:26:37 AM

Latest Report: Aug 31, 2014 at 10:00 AM


Visibility: 1 mi

Pressure: 29.83 "Hg

Humidity: 94%

Dew point: 73 °F

Location of NanjingLocation

Historic Weather in Nanjing — Graph

°F

Nanjing temperature yesterday

Maximum temperature yesterday: 82 °F (at 4:00 PM)
Minimum temperature yesterday: 68 °F (at 3:00 AM)
Average temperature yesterday: 76 °F

Past Weeks' High & Low Weather Summary

 TemperatureHumidityPressure
High91 °F (Aug 22, 1:00 PM)100% (Aug 17, 3:00 AM)29.98 "Hg (Aug 17, 3:00 AM)
Low66 °F (Aug 17, 7:00 AM)55% (Aug 21, 2:00 PM)29.62 "Hg (Aug 24, 2:00 PM)
Average76 °F87%29.85 "Hg
* Reported Aug 16 9:00 AM — Aug 31 9:00 AM, Nanjing, Weather by CustomWeather, © 2014

Note: Actual official high and low records may vary slightly from our data, if they occured in-between our weather recording intervals... More about our weather records

Advertising

Nanjing weather history for previous 24 hours

 ConditionsComfort  
Time TempWeatherWind HumidityBarometerVisibility
9:00 AM
Aug 31
73 °FLight rain. Fog.8 mph100%29.86 "Hg1 mi
8:00 AM73 °FLight rain. Fog.6 mph100%29.83 "Hg1 mi
7:00 AM73 °FLight rain. Fog.8 mph100%29.83 "Hg2 mi
6:00 AM73 °FFog.8 mph100%29.80 "Hg2 mi
5:00 AM73 °FLight rain. Fog.6 mph94%29.80 "Hg2 mi
4:00 AM75 °FFog.8 mph89%29.80 "Hg3 mi
3:00 AM75 °FClear.8 mph89%29.80 "Hg4 mi
2:00 AM75 °FClear.8 mph94%29.80 "Hg4 mi
1:00 AM75 °FClear.8 mph94%29.83 "Hg4 mi
12:00 AM75 °FClear.8 mph94%29.86 "Hg6 mi
11:00 PM
Aug 30
75 °FClear.6 mph89%29.86 "Hg6 mi
10:00 PM75 °FLight rain. Clear.3 mph89%29.86 "Hg5 mi
9:00 PM77 °FLight rain. Clear.1 mph83%29.89 "Hg5 mi
8:00 PM77 °FClear.3 mph83%29.89 "Hg10 mi
7:00 PM77 °FClear.3 mph79%29.86 "Hg10 mi
6:00 PM81 °FSunny.6 mph66%29.86 "Hg10 mi
5:00 PM82 °FPassing clouds.6 mph66%29.86 "HgN/A
4:00 PM82 °FPassing clouds.8 mph66%29.86 "HgN/A
3:00 PM81 °FPartly sunny.6 mph74%29.89 "Hg5 mi
2:00 PM81 °FClear.6 mph79%29.89 "Hg4 mi
1:00 PM81 °FClear.3 mph74%29.95 "Hg4 mi
12:00 PM81 °FClear.6 mph74%29.95 "Hg4 mi
11:00 AM81 °FPartly sunny.6 mph74%29.95 "Hg5 mi
10:00 AM79 °FPartly sunny.10 mph79%29.98 "Hg5 mi
Weather by CustomWeather, © 2014

See weather overviewHow to use our weather pages